Regional Weather Roundup
Issued by NWS

Home | Current Version | Previous Version | Graphics & Text | Print | Product List | Glossary On
Versions: 1 2 3 4 5 6 7 8 9 10 11 12 13 14 15 16 17 18 19 20 21 22 23 24 25 26 27 28 29 30 31 32 33 34 35 36 37 38 39 40 41 42 43 44 45 46 47 48 49 50
000
ASUS43 KTOP 300008
RWRKS

WEATHER ROUNDUP FOR KANSAS
NATIONAL WEATHER SERVICE GOODLAND KS
700 PM CDT SAT AUG 29 2015

NOTE:  "FAIR" INDICATES FEW OR NO CLOUDS BELOW 12,000 FEET WITH NO
SIGNIFICANT WEATHER AND/OR OBSTRUCTIONS TO VISIBILITY.

KSZ001>006-013>018-027>032-041>047-300100-
NORTHWEST KANSAS

CITY           SKY/WX    TMP DP  RH WIND       PRES   REMARKS
GOODLAND       SUNNY     87  39  18 S9        30.09F
6HR MIN TEMP:  85; 6HR MAX TEMP:  91;

HAYS           SUNNY     84  54  34 E9        30.03S
HILL CITY      SUNNY     86  54  33 E7        30.04F
6HR MIN TEMP:  85; 6HR MAX TEMP:  93;

RUSSELL        SUNNY     80  62  54 E8        30.02S
6HR MIN TEMP:  80; 6HR MAX TEMP:  87;

$$

KSZ061>065-074>080-084>089-300100-
SOUTHWEST KANSAS

CITY           SKY/WX    TMP DP  RH WIND       PRES   REMARKS
DODGE CITY     SUNNY     81  52  36 NE6       30.06F
6HR MIN TEMP:  80; 6HR MAX TEMP:  86;

ELKHART          N/A     84  54  35 SE8         N/A
GARDEN CITY    SUNNY     84  50  30 E7        30.07S
6HR MIN TEMP:  83; 6HR MAX TEMP:  90;

GREAT BEND     SUNNY     82  59  44 E9        30.02S
LIBERAL        SUNNY     84  48  28 E10       30.10S
PRATT          SUNNY     81  57  44 E8        30.03S
$$

KSZ066>073-081>083-090>101-300100-
SOUTHEAST KANSAS

CITY           SKY/WX    TMP DP  RH WIND       PRES   REMARKS
CHANUTE        SUNNY     80  64  58 N5        29.99S
6HR MIN TEMP:  78; 6HR MAX TEMP:  82;

COFFEYVILLE    SUNNY     80  66  62 N5        29.97S
6HR MIN TEMP:  78; 6HR MAX TEMP:  83;

HUTCHINSON     SUNNY     75  62  64 E9        30.03R
6HR MIN TEMP:  75; 6HR MAX TEMP:  79;

MEDICINE LODGE   N/A     80  64  58 E6        30.00R
NEWTON         CLOUDY    70  57  64 NE6       30.05S
PARSONS        SUNNY     80  68  66 N3        29.99S
6HR MIN TEMP:  78; 6HR MAX TEMP:  82;

WICHITA INTL   PTSUNNY   73  61  65 NE10      30.02S
6HR MIN TEMP:  70; 6HR MAX TEMP:  75;

WICHITA JABRA  SUNNY     71  62  73 NE6       30.02S
6HR MIN TEMP:  67; 6HR MAX TEMP:  74;

WICHITA MCCONL MOSUNNY   71  59  64 NE9       30.02S
$$

KSZ007>012-019>026-033>040-048>060-102>105-300100-
NORTHEAST KANSAS

CITY           SKY/WX    TMP DP  RH WIND       PRES   REMARKS
CONCORDIA      SUNNY     73  64  73 E5        30.03S
6HR MIN TEMP:  66; 6HR MAX TEMP:  76;

EMPORIA        CLOUDY    72  62  71 NE3       30.02S
6HR MIN TEMP:  68; 6HR MAX TEMP:  73;

LAWRENCE       CLOUDY    74  67  78 CALM      30.01S
6HR MIN TEMP:  71; 6HR MAX TEMP:  76;

MANHATTAN      CLOUDY    71  64  78 N5        30.02S
6HR MIN TEMP:  68; 6HR MAX TEMP:  74;

MARYSVILLE     PTSUNNY  N/A N/A N/A E6        30.03S
OLATHE IND     CLOUDY    74  68  81 N12       30.01S
6HR MIN TEMP:  73; 6HR MAX TEMP:  77;

OLATHE EXE     CLOUDY    75  66  73 N5        30.00S
6HR MIN TEMP:  73; 6HR MAX TEMP:  76;

SALINA         MOSUNNY   73  62  68 NE7       30.03S
6HR MIN TEMP:  70; 6HR MAX TEMP:  76;

TOPEKA BILLARD CLOUDY    74  66  76 NE5       30.01S
6HR MIN TEMP:  70; 6HR MAX TEMP:  76;

TOPEKA FORBES  CLOUDY    75  66  73 CALM      30.01F
6HR MIN TEMP:  71; 6HR MAX TEMP:  76;

$$


USA.gov is the U.S. government's official web portal to all federal, state and local government web resources and services.